STARLINK-11180, 60185

Orbit data source: Space-Track

STARLINK-11180, 60185 is a payload satellite owned by SpaceX/Seattle (US) in LEO that was launched on Wed, 03 Jul 2024 UTC via an FALCON 9 launch vehicle from the Air Force Eastern Test Range (AFETR). Payload-class satellites include a variety of spacecraft equipped with specific instruments for various scientific and technological missions. These include communications satellites like Starlink; space stations such as the ISS; scientific satellites like the Hubble; Earth observation satellites from companies like Planet Labs, Umbra, and HawkEye 360; GPS; miniature CubeSats for education and research; and military/defense satellites.

Loading next visibility...
Identifier
60185, 2024-124C
Orbit
LEO
Country
Flag of USUS
Related business
Manufacturer
SpaceX/Seattle
Mission
Operational Commercial Communications
Bus & Motor
STARLINK V2MD, Unknown motor
Mass
960 kg wet, ~910 kg dry
Launch date (UTC)
2024-07-03 (2 years ago)
Launch vehicle
FALCON 9
Launch site
Air Force Eastern Test Range (AFETR)
Object type
Payload
Rocket body
Debris
Shape & HBR
Box + 2 Pan, 18.1 m
Radar Cross Section
36.964 m², Large (>1 m²)

Expand to show TLE details & history
Last TLE update: 18 hours ago

TLE from 18 hours ago
0 STARLINK-11180
1 60185U 24124C   26061.79372535 -.00001080  00000-0 -40504-5 0  9998
2 60185  53.1602 195.0563 0001685  96.6726 263.4484 15.69717726 95459
Epoch: 2026-03-02T19:02Z
TLE epoch observation values (Epoch: 2026-03-02T19:02:57.870Z)
Latitude
0.00001°
Longitude
108.73315°
Altitude
360.749 km
Speed
7.694 km/s
True Right ascension
13h 00m 13s
True Declination
0° 00' 00"
Sunlit
Object was in full shadow at epoch
Visualization orbit readout
Latitude
Unknown
Longitude
Unknown
Altitude
Unknown
Speed
Unknown
Apparent Right ascension
Unknown
Apparent Declination
Unknown
Sunlit
N/A
Visualization observer readout
Local Sidereal Time
17:06:50
Azimuth
Unknown
Elevation
Unknown
Doppler factor
Unknown
Orbital elements
Apogee altitude
361.101 km
Perigee altitude
358.83 km
Semi-major axis
6,738.102 km
Eccentricity
0.00017
Inclination
53.1602°
RAAN
195.0563°
Arg. of periapsis
96.6726°
True anomaly
263.42922°
Mean anomaly
263.4484°
Eccentric anomaly
263.43881°
Mean motion
3.92407 °/min
Orbital period
91.74 mins
BSTAR
-0.0000040504
Loading maneuver chart data...
Computing Atmospheric mass density...
Loading historical data...
Loading historical data...
Loading historical data...
Loading historical data...
Loading historical data...
Loading historical data...
Loading historical data...

Documentation

Showing up to 5 results
|